TimeEDT,TemperatureF,Dew PointF,Humidity,Sea Level PressureIn,VisibilityMPH,Wind Direction,Wind SpeedMPH,Gust SpeedMPH,PrecipitationIn,Events,Conditions,WindDirDegrees,DateUTC
12:21 AM,60.1,55.9,86,29.77,10.0,South,8.1,-,0.00,Rain,Light Rain,170,2013-11-01 04:21:00
12:52 AM,60.1,57.0,90,29.74,10.0,South,8.1,-,0.00,,Overcast,170,2013-11-01 04:52:00
1:40 AM,63.0,57.9,84,29.72,9.0,South,12.7,25.3,0.01,Rain,Light Rain,190,2013-11-01 05:40:00
1:52 AM,64.0,57.9,80,29.71,9.0,SSW,17.3,29.9,0.01,Rain,Light Rain,210,2013-11-01 05:52:00
2:52 AM,62.1,55.9,80,29.69,10.0,South,11.5,20.7,0.02,Rain,Light Rain,190,2013-11-01 06:52:00
3:52 AM,62.1,55.9,80,29.66,10.0,South,10.4,21.9,0.00,,Scattered Clouds,190,2013-11-01 07:52:00
4:11 AM,63.0,57.0,81,29.64,10.0,South,13.8,19.6,N/A,,Mostly Cloudy,190,2013-11-01 08:11:00
4:23 AM,63.0,57.0,81,29.64,10.0,South,12.7,25.3,N/A,,Scattered Clouds,190,2013-11-01 08:23:00
4:52 AM,64.0,57.0,78,29.62,10.0,South,12.7,20.7,N/A,,Clear,170,2013-11-01 08:52:00
5:52 AM,64.9,57.0,75,29.59,10.0,South,11.5,21.9,N/A,,Mostly Cloudy,180,2013-11-01 09:52:00
6:52 AM,66.9,57.9,73,29.56,10.0,SSW,12.7,26.5,N/A,,Clear,200,2013-11-01 10:52:00
7:52 AM,69.1,57.9,68,29.55,10.0,SSW,15.0,23.0,N/A,,Mostly Cloudy,200,2013-11-01 11:52:00
8:52 AM,66.0,61.0,84,29.55,4.0,SSW,20.7,31.1,0.05,Rain,Rain,200,2013-11-01 12:52:00
9:52 AM,66.9,60.1,79,29.51,10.0,South,19.6,32.2,0.03,Rain,Light Rain,190,2013-11-01 13:52:00
10:52 AM,66.9,61.0,81,29.49,7.0,SSW,18.4,27.6,0.01,Rain,Light Rain,200,2013-11-01 14:52:00
11:52 AM,68.0,60.1,76,29.50,10.0,WSW,11.5,31.1,0.05,,Overcast,250,2013-11-01 15:52:00
12:52 PM,66.0,57.9,75,29.49,10.0,SSW,12.7,20.7,0.00,Rain,Light Rain,210,2013-11-01 16:52:00
1:52 PM,64.9,53.1,65,29.47,10.0,SSW,15.0,32.2,0.01,,Overcast,210,2013-11-01 17:52:00
2:52 PM,66.0,53.1,63,29.48,10.0,SW,11.5,23.0,0.00,,Overcast,220,2013-11-01 18:52:00
3:52 PM,68.0,53.1,59,29.48,10.0,SW,12.7,24.2,N/A,,Clear,220,2013-11-01 19:52:00
4:52 PM,66.0,52.0,60,29.49,10.0,SSW,12.7,21.9,N/A,,Clear,210,2013-11-01 20:52:00
5:52 PM,64.9,52.0,63,29.50,10.0,SSW,11.5,-,N/A,,Clear,200,2013-11-01 21:52:00
6:52 PM,62.1,52.0,70,29.52,10.0,South,8.1,-,N/A,,Clear,180,2013-11-01 22:52:00
7:52 PM,61.0,52.0,72,29.56,10.0,South,9.2,-,N/A,,Clear,180,2013-11-01 23:52:00
8:52 PM,60.1,51.1,72,29.58,10.0,South,6.9,-,N/A,,Clear,190,2013-11-02 00:52:00
9:52 PM,59.0,51.1,75,29.61,10.0,South,6.9,-,N/A,,Clear,190,2013-11-02 01:52:00
10:52 PM,60.1,50.0,69,29.63,10.0,SW,6.9,-,N/A,,Clear,230,2013-11-02 02:52:00
11:52 PM,57.0,48.9,74,29.66,10.0,West,8.1,-,N/A,,Clear,280,2013-11-02 03:52:00